{"data":{"norad_id":51950,"intl_designator":"2022-023E","name":"2022-023E","alt_names":[],"object_type":"PAYLOAD","status":"ACTIVE","operator":null,"country":"PRC","launch_date":"2022-03-05","launch_site_code":"XICLF","launch_vehicle":null,"mission":null,"orbit_class":"UNKNOWN","rcs_meters":null,"size_class":null,"mass_kg":null,"dimensions":null,"purposes":[],"wikipedia_slug":null,"has_3d_model":false,"image_url":null,"decayed_at":null,"tle_current":{"epoch":"2026-05-25T04:50:28.818816Z","epoch_age_seconds":54720,"freshness":"FRESH","line1":"1 51950U 22023E   26145.20172244 -.00000010  00000+0  10765-3 0  9992","line2":"2 51950  63.4634  13.5450 0157964 348.6805  11.0690 13.56283030218911","mean_motion":13.5628303,"eccentricity":0.0157964,"inclination_deg":63.4634,"raan_deg":13.545,"arg_perigee_deg":348.6805,"mean_anomaly_deg":11.069,"bstar":0.00010765,"rev_number":21891,"period_min":106.1725294904,"perigee_km":931.90555782269,"apogee_km":1166.5569170748,"semimajor_km":7427.3682374487,"source":"CELESTRAK","updated_at":"2026-05-25T13:37:57.570253Z"}}}